軌道要素
Epoch 2024 Mar. 31.0 TT = JDT 2460400.5
T 2023 Nov. 29.75699 TT Rudenko
q 2.0797983 (2000.0) P Q
n 0.13583345 Peri. 51.43439 -0.64192014 -0.75897070
a 3.7479884 Node 78.85717 +0.66437921 -0.62157365
e 0.4450894 Incl. 6.38406 +0.38280386 -0.19393214
P 7.26
>From 93 observations 2023 Nov. 24-2024 Apr. 10, mean residual 0".5.
|